Regional Weather Roundup
Issued by NWS Portland, ME

Current Version | Previous Version | Text Only | Print | Product List | Glossary Off
Versions: 1 2 3 4 5 6 7 8 9 10 11 12 13 14 15 16 17 18 19 20 21 22 23 24 25 26 27 28 29 30 31 32 33 34 35 36 37 38 39 40 41 42 43 44 45 46 47 48 49 50
000 ASUS41 KGYX 201610 RWRGYX WEATHER ROUNDUP FOR MAINE AND NEW HAMPSHIRE NATIONAL WEATHER SERVICE GRAY ME 1200 PM EDT THU SEP 20 2018 MEZ002-005-006-010-012-015-018-020-021-024-026-027-029-201700- MAINE CITY SKY/WX TMP DP RH WIND PRES REMARKS PORTLAND CLOUDY 59 53 80 E7 30.30S SANFORD CLOUDY 59 55 88 SE5 30.30S BAR HARBOR FAIR 58 48 69 SE3 30.28F WISCASSET CLOUDY 61 51 70 SE5 30.31R ROCKLAND CLOUDY 55 50 83 VRB7 30.31R FRYEBURG FAIR 61 53 75 E5 30.29R LEWISTONAUBURN CLOUDY 59 51 75 CALM 30.30R AUGUSTA CLOUDY 57 50 77 VRB3 30.30R WATERVILLE CLOUDY 56 49 77 CALM 30.27F BANGOR PTSUNNY 57 49 74 S9 30.29S GREENVILLE N/A 54 47 77 S5 30.24F MILLINOCKET CLOUDY 56 46 69 VRB3 30.29S HOULTON CLOUDY 56 45 66 E5 30.29R PRESQUE ISLE CLOUDY 53 45 74 S10 30.29S FRENCHVILLE LGT RAIN 52 46 80 S7 30.29R CARIBOU CLOUDY 53 44 71 SW6 30.29R $$ NHZ002-005-008-009-011-012-014-201700- NEW HAMPSHIRE CITY SKY/WX TMP DP RH WIND PRES REMARKS PORTSMOUTH CLOUDY 60 53 79 NE6 30.28R ROCHESTER CLOUDY 59 56 89 CALM 30.29R NASHUA PTSUNNY 65 56 72 VRB3 30.28F MANCHESTER PTSUNNY 64 53 67 N7 30.26F CONCORD FAIR 63 53 70 CALM 30.28R LACONIA FAIR 60 52 74 E6 30.28R PLYMOUTH CLOUDY 61 53 73 CALM 30.27F BERLIN CLOUDY 60 52 74 CALM 30.27R WHITEFIELD CLOUDY 63 53 70 VRB5 30.26R JAFFREY PTSUNNY N/A N/A N/A E5 30.28R KEENE CLOUDY N/A N/A N/A VRB3 30.27R LEBANON CLOUDY 64 53 67 W3 30.26R MT WASHINGTON CLOUDY 43 36 75 NW17 N/A $$ VTZ005-007-008-201700- VERMONT CITY SKY/WX TMP DP RH WIND PRES REMARKS ST JOHNSBURY N/A 60 53 77 MISG 30.24F MONTPELIER FAIR 59 53 80 S7 30.30S BURLINGTON CLOUDY 60 52 74 W3 30.25R $$ MAZ007-012-024-CTZ003-RIZ002-NYZ038-NYZ072-201700- SOUTHERN NEW ENGLAND AND NY CITY SKY/WX TMP DP RH WIND PRES REMARKS BOSTON CLOUDY 63 56 78 NE12 30.28R WORCESTER PTSUNNY 61 53 75 N6 30.28R NANTUCKET FAIR 67 58 72 NE13 30.21R PROVIDENCE PTSUNNY 67 57 70 NE13 30.26R HARTFORD PTSUNNY 66 55 67 E8 30.26R ALBANY PTSUNNY 67 55 65 CALM 30.26S NEW YORK CITY CLOUDY 68 57 68 NE8 30.24R $$ ANZ081-ANZ082-ANZ150-NHZ014-MEZ023>029-201700- COASTAL MARINE OBSERVATIONS STATION/POSITION TIME TEMP WIND PRES WAVE AIR SEA DIR/SP/G HT/PER (UTC) (F) (DEG/KT/KT) (MB) (FT/S) MOUNT DESERT ROC 1600 55 40/ 11/ 12 1025.8F MATINICUS ROCK 1500 55 30/ 11/ 14 1025.2R ISLE OF SHOALS 1500 58 50/ 13/ 14 1024.8R JEFFREYS LEDGE 1536 64 N/A 6/ 8 $$ .............KEY.............. WCI - WIND CHILL TC - TEMPERATURE IN CELSIUS VSB - VISIBILITY IN MILES HX - HEAT INDEX FAIR- INDICATES FEW OR NO CLOUDS BELOW 12,000 FT, WITH NO SIGNIFICANT WEATHER AND/OR OBSTRUCTIONS TO VISIBILITY.

USA.gov is the U.S. government's official web portal to all federal, state and local government web resources and services.